Location: Newark
(34.9500°N, 139.9667°E)
Time: 08:50:03
(UTC+00:00)

Vanguard 1 Rocket - Pass Details

Date: 12 December 2019
Orbit: 650 x 4226 km, 34.3° (Epoch: 21 January)

Event Time Altitude Azimuth Distance (km) Brightness Sun altitude
Rises 09:30:49 0° 226° (SW) 8,456 13.2 -24.2°
Reaches altitude 10° 09:37:12 10° 222° (SW) 7,307 12.7 -25.5°
Maximum altitude 09:59:42 54° 154° (SSE) 3,483 10.1 -30.1°
Enters shadow 10:04:54 42° 110° (ESE) 3,389 9.8 -31.1°
Drops below altitude 10° 10:12:35 10° 82° (E) 4,446 - -32.7°
Sets 10:15:22 0° 77° (ENE) 5,084 - -33.2°
